Weather History for El Paso, TX

Change the Weather History Date:

Saturday, February 12, 2011

  Actual Average Record
Temperature  
Mean Temperature 42 °F 50 °F  
Max Temperature 62 °F 63 °F 79 °F (1962)
Min Temperature 21 °F 37 °F 5 °F (1899)
Degree Days  
Heating Degree Days 23 15  
Month to date heating degree days 396 200  
Since 1 July heating degree days 1818 1885  
Cooling Degree Days 0 0  
Month to date cooling degree days 0 0  
Year to date cooling degree days 0 0  
Moisture  
Dew Point 4 °F    
Average Humidity 24    
Maximum Humidity 40    
Minimum Humidity 8    
Precipitation  
Precipitation 0.00 in 0.01 in 0.39 in (1968)
Month to date precipitation 0.11 0.21  
Year to date precipitation 0.11 0.61  
Snow  
Snow 0.00 in - - ()
Month to date snowfall 1.5  
Since 1 July snowfall 2.0  
Snow Depth 0.00 in    
Sea Level Pressure  
Sea Level Pressure 30.34 in    
Wind  
Wind Speed 3 mph (NE)    
Max Wind Speed 9 mph    
Max Gust Speed 14 mph    
Visibility 10 miles    
Events      
T = Trace of Precipitation, MM = Missing Value Source: NWS Daily Summary

Daily Weather History Graph

Daily Weather History Graph

Search for Another Location

Airport:

Trip Planner

Search our weather history database for the weather conditions in past years. The results will help you decide how hot, cold, wet, or windy it might be!

Date:

Astronomy

Feb. 12, 2011 Rise Set
Actual Time 6:50 AM MST 5:49 PM MST
Civil Twilight 6:25 AM MST 6:14 PM MST
Nautical Twilight 5:56 AM MST 6:43 PM MST
Astronomical Twilight 5:28 AM MST 7:11 PM MST
Moon 12:09 PM MST (2/12) 1:52 AM MST (2/12)
Length of Visible Light 11h 49m
Length of Day
10h 59m
Waxing Gibbous, 65% of the Moon is Illuminated
Feb 12
Waxing Gibbous
Feb 18
Full
Feb 24
Last Quarter
Mar 4
New
Mar 12
First Quarter

Hourly Weather History & Observations

Time (MST) Temp. Windchill Dew Point Humidity Pressure Visibility Wind Dir Wind Speed Gust Speed Precip Events Conditions
12:51 AM 32.0 °F 26.4 °F 1.9 °F 28% 30.33 in 10.0 mi North 5.8 mph - N/A   Clear
1:51 AM 30.0 °F 24.1 °F 3.0 °F 32% 30.33 in 10.0 mi NE 5.8 mph - N/A   Clear
2:51 AM 27.0 °F 23.0 °F 1.9 °F 34% 30.34 in 10.0 mi East 3.5 mph - N/A   Clear
3:51 AM 24.1 °F - -0.0 °F 35% 30.35 in 10.0 mi Calm Calm - N/A   Clear
4:51 AM 27.0 °F - 1.9 °F 34% 30.35 in 10.0 mi Calm Calm - N/A   Clear
5:51 AM 24.1 °F 18.2 °F 1.9 °F 38% 30.38 in 10.0 mi North 4.6 mph - N/A   Clear
6:51 AM 24.1 °F 19.7 °F 3.0 °F 40% 30.41 in 10.0 mi NNE 3.5 mph - N/A   Clear
7:51 AM 30.9 °F 26.2 °F 6.1 °F 35% 30.43 in 10.0 mi North 4.6 mph - N/A   Clear
8:51 AM 39.0 °F 35.7 °F 9.0 °F 29% 30.45 in 10.0 mi NNE 4.6 mph - N/A   Clear
9:51 AM 44.1 °F 40.8 °F 9.0 °F 24% 30.44 in 10.0 mi NNE 5.8 mph - N/A   Clear
10:51 AM 50.0 °F - 9.0 °F 19% 30.42 in 10.0 mi NNE 3.5 mph - N/A   Clear
11:51 AM 54.0 °F - 9.0 °F 17% 30.38 in 10.0 mi East 3.5 mph - N/A   Clear
12:51 PM 57.0 °F - 7.0 °F 14% 30.35 in 10.0 mi Calm Calm - N/A   Clear
1:51 PM 57.9 °F - 6.1 °F 13% 30.31 in 10.0 mi Calm Calm - N/A   Clear
2:51 PM 61.0 °F - 5.0 °F 11% 30.29 in 10.0 mi Variable 5.8 mph - N/A   Clear
3:51 PM 61.0 °F - 3.9 °F 10% 30.29 in 10.0 mi Variable 4.6 mph - N/A   Clear
4:51 PM 62.1 °F - 1.9 °F 9% 30.27 in 10.0 mi Calm Calm - N/A   Clear
5:51 PM 57.9 °F - 3.0 °F 11% 30.28 in 10.0 mi ESE 3.5 mph - N/A   Clear
6:51 PM 52.0 °F - 3.0 °F 14% 30.31 in 10.0 mi ESE 3.5 mph - N/A   Clear
7:51 PM 51.1 °F - 3.0 °F 14% 30.30 in 10.0 mi North 3.5 mph - N/A   Clear
8:51 PM 46.0 °F 44.8 °F 3.0 °F 17% 30.30 in 10.0 mi NNE 3.5 mph - N/A   Clear
9:51 PM 46.0 °F 44.8 °F -0.0 °F 15% 30.30 in 10.0 mi NE 3.5 mph - N/A   Clear
10:51 PM 39.0 °F 36.8 °F -0.9 °F 19% 30.29 in 10.0 mi East 3.5 mph - N/A   Clear
11:51 PM 37.9 °F - 1.0 °F 21% 30.28 in 10.0 mi Calm Calm - N/A   Clear